Regional Weather Roundup
Issued by NWS

Home | Current Version | Previous Version | Text Only | Print | Product List | Glossary Off
Versions: 1 2 3 4 5 6 7 8 9 10 11 12 13 14 15 16 17 18 19 20 21 22 23 24 25 26 27 28 29 30 31 32 33 34 35 36 37 38 39 40 41 42 43 44 45 46 47 48 49 50

000
ASUS43 KIND 301959
RWRIN

WEATHER ROUNDUP FOR INDIANA
NATIONAL WEATHER SERVICE INDIANAPOLIS IN
400 PM EDT SAT APR 30 2016

NOTE: "FAIR" INDICATES FEW OR NO CLOUDS BELOW 12,000 FEET WITH NO
SIGNIFICANT WEATHER AND/OR OBSTRUCTIONS TO VISIBILITY.

* - STATION DOES NOT REPORT WEATHER SUCH AS PRECIPITATION OR FOG.

+ - STATION NOT QUALITY CONTROLLED BY THE NATIONAL WEATHER SERVICE.
    USE DATA WITH CAUTION...ESPECIALLY DEWPOINT AND RELATIVE
    HUMIDITY OBSERVATIONS.

INZ001>003-010>013-019-020-302100-
NORTHWEST INDIANA

CITY           SKY/WX    TMP DP  RH WIND       PRES   REMARKS
GARY /AIRPORT/ LGT RAIN  48  48 100 E15       29.93F
RENSSELAER +   LGT RAIN  50  48  93 E17       29.89F

$$

LMZ046-743>745-302100-
SOUTHERN LAKE MICHIGAN

STATION/POSITION TIME  TEMP    WIND        PRES    WAVE
                       AIR SEA DIR/SP/G            HT
                 (UTC) (F)     (DEG/KT/KT) (MB)    (FT)
BURNS HARBOR     1906   47      80/ 16/ 20 1014.2F
MICHIGAN CITY    1900   47      60/ 16/ 19   N/A

$$

INZ004-005-014>016-021>024-302100-
NORTH CENTRAL INDIANA

CITY           SKY/WX    TMP DP  RH WIND       PRES   REMARKS
ELKHART        LGT RAIN  48  48 100 MISG      29.98F
GOSHEN         LGT RAIN  48  45  89 E14       29.97F FOG
SOUTH BEND     LGT RAIN  48  45  89 E15G23    29.96F

$$

INZ006>009-017-018-025>027-302100-
NORTHEAST INDIANA

CITY           SKY/WX    TMP DP  RH WIND       PRES   REMARKS
ANGOLA *+      CLOUDY    48  46  93 E10       30.01F
FORT WAYNE     LGT RAIN  49  47  93 E16       29.97F FOG

$$

INZ028-029-035-036-043>045-051>053-302100-
WEST CENTRAL INDIANA

CITY           SKY/WX    TMP DP  RH WIND       PRES   REMARKS
CRAWFORDSVL +  LGT RAIN  55  55 100 SE13G20   29.86F
GREENCASTLE +  CLOUDY    54  54 100 SE10      29.87F
LAFAYETTE      LGT RAIN  52  51  97 E10       29.88S FOG
TERRE HAUTE    CLOUDY    60  57  89 SE14      29.83F

$$

INZ030>032-037>040-046>048-054>057-064-065-302100-
CENTRAL INDIANA

CITY           SKY/WX    TMP DP  RH WIND       PRES   REMARKS
ANDERSON       LGT RAIN  52  52 100 E6        29.93S
COLUMBUS       CLOUDY    59  59 100 SE9       29.91F
INDIANAPOLIS   CLOUDY    56  53  90 E12       29.88F
-EAGLE CREEK   LGT RAIN  56  54  93 E12       29.89F
KOKOMO *+      CLOUDY    50  46  87 E16       29.91F
SHELBYVILLE    LGT RAIN  59  55  87 SE7       29.90F

$$

INZ033-034-041-042-049-050-058-059-302100-
EAST CENTRAL INDIANA

CITY           SKY/WX    TMP DP  RH WIND       PRES   REMARKS
MUNCIE         RAIN      53  50  89 E12       29.93F FOG

$$

INZ060-061-067>069-081>083-085>088-302100-
SOUTHWEST INDIANA

CITY           SKY/WX    TMP DP  RH WIND       PRES   REMARKS
EVANSVILLE     LGT RAIN  66  62  87 SE7       29.84F FOG
HUNTINGBURG *+ CLOUDY    64  61  88 SE7       29.87F

$$

INZ062-063-066-070>080-084-089>092-302100-
SOUTH CENTRAL AND SOUTHEAST INDIANA

CITY           SKY/WX    TMP DP  RH WIND       PRES   REMARKS
BLOOMINGTON    CLOUDY    59  57  93 SE9       29.88F
MADISON *+     CLOUDY    61  59  94 SE7       29.91F
SEYMOUR +      CLOUDY    63  59  88 SE8       29.89F

$$




USA.gov is the U.S. government's official web portal to all federal, state and local government web resources and services.